SCP
0 0 0 0 0 0 0 0 0 -0 -0 -0 0 -0 -0 0 0 -0 -0 -0 -0 -0 -0 -0 0 -0 -0 0 0 0 0 0 0 0 0 0 0 0 0 0 0 0 0 0
0 0 0 0 0 0 0 0 0 0 -0 -0 -0 -0 0 -0 0 0 -0 -0 -0 -0 -0 -0 -0 -0 0 0 0 0 0 0 0 0 0 0 0 0 0 0 0 0 0 0
0 0 0 0 0 0 0 0 0 0 0 0 0 0 0 0 0 0 0 0 0 -0 -0 -0 -0 -0 0 0 0 0 0 0 0 0 0 -0 0 0 0 0 0 0 0 0
0 0 0 0 0 0 0 0 0 0 0 0 0 0 0 0 0 0 0 0 0 0 0 0 0 0 0 0 0 0 0 0 0 -0 0 -0 -0 -0 0 0 0 0 0 0
0 0 0 0 0 0 0 0 0 0 0 0 0 0 0 0 0 0 0 0 0 0 0 0 0 0 0 0 0 0 0 0 0 0 -0 0 0 0 0 0 0 0 0 0
0 0 0 0 0 0 0 0 0 0 0 0 0 0 0 0 0 0 0 0 0 0 0 0 0 0 0 0 0 0 0 0 0 0 0 0 0 0 0 0 0 0 0 0
0 0 0 0 0 0 0 0 0 0 0 0 0 0 0 0 0 0 0 0 0 0 0 0 0 0 0 0 0 0 0 0 0 0 0 0 -0 0 0 0 0 0 0 0
0 0 0 0 0 0 0 0 0 0 0 0 0 0 -0 0 0 0 0 0 0 0 0 0 0 0 0 0 0 0 0 0 0 0 0 0 0 0 0 0 0 0 0 0
0 0 0 0 0 0 0 0 0 0 0 0 0 0 0 0 0 0 0 0 0 0 0 0 0 0 0 0 0 0 0 0 0 0 0 0 0 0 0 0 0 0 0 0
0 0 0 0 0 0 0 0 0 0 0 0 0 0 0 0 0 0 0 0 0 0 0 0 0 0 0 0 0 0 0 0 0 0 0 0 0 0 0 0 0 0 0 0
0 0 0 0 0 0 0 0 0 0 0 0 0 0 0 0 0 0 0 0 0 0 0 0 0 0 0 0 0 0 0 0 0 0 0 0 0 0 0 0 0 0 0 0
0 0 0 0 0 0 0 0 0 0 0 0 0 -0 0 0 0 0 0 0 0 0 0 0 0 0 0 0 0 0 0 0 0 0 0 0 0 0 0 0 0 0 0 0
0 0 0 0 0 0 0 0 0 0 0 0 0 0 0 0 0 0 0 0 0 0 0 0 0 0 0 0 0 0 0 0 0 0 0 0 0 0 0 0 0 0 0 0
0 0 0 0 0 0 0 0 0 0 0 0 0 0 0 0 0 0 0 0 0 0 0 0 0 0 0 0 0 0 0 0 0 0 0 0 0 0 0 0 0 0 0 0
0 0 0 0 0 0 0 0 0 0 0 0 0 0 0 0 0 0 0 0 0 0 0 0 0 0 0 0 0 0 0 0 0 0 0 0 0 0 0 0 0 0 0 0
0 0 0 0 0 0 0 0 0 0 0 0 0 0 0 0 0 0 0 0 0 0 0 0 0 0 0 0 0 0 0 0 0 0 0 0 0 0 0 0 0 0 0 0
0 0 0 0 0 0 0 0 0 0 0 0 0 0 0 0 0 0 0 0 0 0 0 0 0 0 0 0 0 0 0 0 0 0 0 0 0 0 0 0 0 0 0 0
0 0 0 0 0 0 0 0 0 0 0 0 0 0 0 0 0 0 0 0 0 0 0 0 0 0 0 0 0 0 0 0 0 0 0 0 0 0 0 0 0 0 0 0
0 0 0 0 0 0 0 0 0 0 0 0 0 0 0 0 0 0 0 0 0 0 0 0 0 0 0 0 0 0 0 0 0 0 0 0 0 0 0 0 0 0 0 0
0 0 0 0 0 0 0 0 0 0 0 0 0 0 0 0 0 0 0 0 0 0 0 0 0 0 0 0 0 0 0 0 0 0 0 0 0 0 0 0 0 0 0 0
-0 0 0 0 0 0 0 0 0 0 0 0 0 0 0 0 0 0 0 0 0 0 0 0 0 0 0 0 0 0 0 0 0 0 0 0 0 0 0 0 0 0 0 0
-0 0 0 0 0 0 0 0 0 0 0 0 0 0 0 0 0 0 0 0 0 0 0 0 0 0 0 0 0 0 0 0 0 0 0 0 0 0 0 0 0 0 0 -0
0 0 0 0 0 0 0 0 0 0 0 0 0 0 0 0 0 0 0 0 0 0 0 0 0 0 0 0 0 0 0 0 0 0 0 0 0 0 0 0 0 -0 0 0
0 0 0 0 0 0 0 0 0 0 0 0 0 0 0 0 0 0 0 0 0 0 0 0 0 0 0 -0 0 0 0 0 0 0 0 0 0 0 0 0 0 0 0 0
0 0 0 0 0 0 0 0 0 0 0 0 0 0 0 0 0 0 0 0 0 0 0 0 0 0 -0 -0 -0 0 0 0 0 0 0 0 0 0 0 0 0 0 0 0
0 0 0 0 0 0 0 0 0 0 0 0 0 0 0 0 0 0 0 0 0 0 0 0 0 0 0 -0 -0 -0 -0 -0 -0 0 0 0 0 0 0 0 -0 -0 -0 -0
0 0 -0 -0 -0 -0 0 0 0 0 0 0 0 0 0 0 0 0 0 0 0 0 0 0 0 0 0 -0 -0 -0 -0 -0 -0 -0 -0 -0 -0 -0 -0 -0 -0 -0 -0 -0
Wind_Speed_500mb
14 16 12 10 19 15 8 9 12 11 20 20 22 19 40 43 41 43 45 45 38 32 28 32 39 45 52 63 57 53 59 39 34 36 53 63 57 55 51 51 53 56 56 51
1 8 13 11 17 15 14 9 5 11 14 5 16 19 20 47 45 48 51 42 35 29 24 23 25 30 34 46 55 58 61 55 56 59 55 44 52 57 58 53 50 48 51 50
5 3 7 6 14 12 9 8 13 12 20 13 11 19 39 45 49 52 48 49 45 34 23 15 18 21 25 31 41 47 50 56 56 63 54 49 49 60 63 63 59 56 54 57
4 7 5 13 7 0 11 11 13 8 17 35 48 57 57 56 60 58 55 55 51 37 28 20 17 19 19 21 23 28 32 35 40 48 53 54 55 54 53 57 63 58 60 62
10 6 10 6 7 11 11 14 18 16 12 22 30 31 21 53 60 60 59 52 46 36 32 24 19 14 13 13 12 15 14 18 22 26 30 34 43 44 43 57 63 62 58 52
2 11 11 13 5 9 9 8 7 15 19 27 41 9 11 59 59 61 51 51 49 39 29 23 21 17 14 16 19 16 14 16 20 27 31 32 32 36 34 30 32 46 54 52
2 2 12 14 17 26 14 14 10 36 49 51 21 25 53 53 58 55 50 56 45 36 28 20 16 14 17 20 23 18 16 18 21 26 27 35 35 35 33 37 42 45 46 45
9 8 15 16 7 13 17 4 13 46 52 58 45 36 56 56 56 56 58 50 42 34 27 22 20 22 27 30 24 27 25 24 23 28 28 31 36 35 36 37 38 42 43 47
12 11 16 29 10 17 14 16 16 51 59 65 56 71 69 70 67 63 58 49 39 31 24 19 23 27 32 29 33 34 31 27 25 27 34 32 31 32 32 33 33 39 46 50
7 2 23 35 9 8 21 20 15 40 68 67 62 73 75 72 67 61 52 47 39 25 17 17 18 20 22 33 35 36 34 30 31 33 40 38 32 29 29 29 32 35 37 40
9 9 23 8 42 47 16 6 27 26 63 64 60 78 82 73 65 57 51 39 25 16 14 16 19 21 22 20 24 29 30 34 40 45 43 38 29 30 30 30 32 39 39 42
8 4 6 25 48 37 30 17 30 49 55 59 63 82 77 68 61 56 47 34 22 12 9 9 10 12 16 19 24 29 35 40 38 30 30 28 27 28 34 37 42 44 42 44
6 13 28 45 37 18 42 17 7 40 61 69 80 80 74 68 62 52 39 27 15 9 4 9 10 14 18 24 30 34 37 35 34 35 33 32 35 36 43 37 41 41 43 43
22 35 35 21 28 44 36 17 5 34 65 75 82 77 70 67 59 47 36 25 17 8 3 10 13 16 22 25 27 31 33 35 37 37 32 33 36 39 34 38 44 45 40 33
58 57 58 54 50 38 33 16 14 27 55 70 74 74 75 69 59 50 39 28 18 8 7 15 21 23 28 32 35 36 38 38 30 27 31 32 32 34 39 42 37 25 20 16
57 51 48 49 52 37 21 12 24 46 65 70 68 74 78 67 59 50 38 29 14 8 9 18 24 22 18 22 25 23 26 26 23 25 24 28 29 34 35 24 12 8 6 9
41 32 35 45 56 41 23 11 23 32 49 62 70 80 76 64 56 48 38 28 17 12 11 18 23 20 21 22 24 22 24 24 25 26 26 27 29 27 15 13 14 17 19 23
49 49 42 50 59 36 26 9 14 36 35 59 72 73 66 67 65 48 36 26 20 15 14 20 22 25 27 32 35 35 34 30 30 28 27 31 29 19 18 23 30 38 38 36
48 48 38 31 33 19 20 20 15 23 34 43 58 67 72 68 52 38 31 27 20 16 16 21 28 34 37 39 38 34 33 32 36 31 31 30 30 30 33 38 39 39 36 32
48 33 30 30 35 38 23 19 20 21 30 29 39 64 74 61 49 34 28 28 21 18 18 20 31 38 39 39 39 37 37 31 34 38 38 41 36 42 43 38 37 37 37 38
49 38 39 38 30 26 34 30 31 30 30 42 45 65 64 55 43 41 37 36 26 20 21 24 33 34 38 39 31 20 20 28 36 39 39 43 48 51 46 43 42 43 43 41
45 42 32 34 34 37 37 40 29 20 16 27 52 48 45 54 46 40 34 23 22 20 21 23 27 28 29 26 12 15 18 26 27 36 52 44 56 59 51 50 42 41 37 33
39 36 35 30 29 27 26 33 24 21 24 35 41 53 60 49 37 40 31 25 28 25 21 18 20 18 22 22 8 11 12 15 19 35 31 32 61 55 55 43 36 39 34 29
21 18 20 19 27 27 33 35 35 34 43 57 55 38 33 33 35 35 30 25 25 22 19 13 6 16 19 24 23 12 10 18 13 18 33 40 66 72 47 34 34 33 36 30
39 34 29 35 36 23 20 31 32 31 35 32 25 23 20 10 15 15 25 29 28 30 26 15 6 18 20 24 24 14 8 3 11 23 38 66 69 53 52 50 44 49 44 27
37 32 25 19 20 28 25 27 31 36 32 20 17 22 27 29 33 30 31 33 34 29 31 27 17 15 22 22 21 25 31 34 34 36 37 46 46 51 29 28 46 43 31 21
39 33 35 33 27 23 18 13 10 12 11 9 11 14 23 36 35 30 28 34 38 37 42 38 29 24 26 24 24 22 27 33 37 38 33 26 22 27 35 30 28 31 27 25
Wind_Direction_500mb
223 212 157 153 168 169 120 162 157 240 200 215 202 196 192 186 178 184 192 196 213 220 222 227 236 240 239 239 240 236 240 244 230 245 262 251 247 245 247 244 245 246 248 250
291 205 182 162 172 168 147 145 203 180 247 263 197 192 177 182 177 171 170 175 179 179 181 194 207 220 229 234 244 240 237 246 250 247 265 251 248 248 246 241 244 247 242 244
224 125 81 23 211 183 164 180 146 157 214 150 180 179 195 187 182 169 175 179 178 174 178 192 218 223 227 237 243 245 250 249 258 251 253 247 262 259 256 247 243 242 246 247
170 60 177 237 285 182 175 174 206 169 158 187 195 201 195 193 186 176 174 177 177 173 176 185 188 191 202 218 223 229 236 242 248 250 251 254 267 257 249 245 242 243 245 252
128 184 275 270 186 182 165 241 193 198 156 178 154 156 198 202 198 188 184 186 183 178 174 176 181 200 219 227 216 218 225 240 242 245 253 259 266 260 262 250 251 259 255 259
140 154 205 239 199 137 88 306 192 150 142 137 135 139 237 206 207 199 191 185 181 180 183 197 201 213 237 253 270 256 269 287 277 267 268 269 267 260 266 259 245 252 261 257
145 127 289 252 283 129 113 235 214 184 166 157 169 195 199 196 198 198 195 181 182 182 186 192 209 252 262 261 265 269 278 275 290 277 284 279 272 268 266 262 260 266 243 244
113 138 246 208 235 164 194 256 234 194 187 173 184 168 165 172 180 179 176 174 177 180 188 204 224 247 241 240 249 246 260 270 288 279 287 281 269 267 265 265 267 261 257 257
175 209 303 310 277 158 176 149 188 199 189 182 164 162 167 162 165 167 168 170 175 185 192 217 241 239 244 249 241 238 248 264 278 291 305 288 270 262 261 260 256 251 248 251
352 243 329 318 17 9 319 175 211 208 198 181 169 168 165 165 166 166 170 172 177 190 226 248 245 245 254 253 254 244 251 268 281 290 299 295 278 266 264 257 258 258 261 264
289 320 341 22 2 3 332 238 156 171 189 179 175 170 169 169 170 174 175 180 189 212 247 268 271 268 270 263 254 255 268 280 289 287 283 282 270 278 274 278 276 274 272 270
238 209 239 294 327 344 358 9 184 171 180 187 193 176 175 178 183 183 182 185 190 227 265 300 292 269 256 248 257 270 282 294 298 285 279 268 264 262 271 279 283 277 272 270
262 296 309 320 322 329 335 319 203 204 194 188 183 181 184 184 183 181 182 184 199 224 290 324 296 267 267 273 275 277 285 288 286 279 283 265 268 272 277 282 285 280 276 271
276 305 298 300 322 325 327 307 226 205 200 192 189 190 190 185 180 185 186 195 205 207 305 330 311 281 279 279 283 280 281 285 284 277 282 274 270 275 277 279 283 286 279 273
268 271 272 281 287 308 310 290 241 214 206 204 201 194 192 187 189 189 194 200 199 205 295 324 315 287 282 281 279 279 279 283 283 278 270 266 270 271 276 282 286 283 281 266
247 258 263 263 269 289 295 264 210 198 201 208 204 198 196 197 193 192 197 196 198 240 295 324 326 311 297 299 289 280 276 279 283 279 270 266 267 273 275 273 252 245 195 171
229 215 231 242 245 259 251 242 186 181 190 201 208 198 195 192 192 191 191 193 209 244 287 321 331 316 299 301 301 288 281 286 282 278 265 265 272 277 243 211 192 165 144 127
237 239 246 251 249 250 236 245 204 196 203 206 203 196 192 199 200 192 196 200 218 253 287 311 318 316 301 298 297 283 268 258 264 268 264 256 270 239 195 176 158 143 134 126
238 232 245 221 223 221 220 219 232 206 190 202 202 198 200 210 204 194 196 211 228 267 284 304 315 316 311 305 298 288 276 248 249 246 251 254 248 202 176 159 151 145 140 137
223 213 226 246 263 252 240 218 258 254 240 218 199 203 203 203 202 205 224 234 243 263 290 304 322 317 310 306 298 288 262 245 237 241 246 239 215 192 176 169 163 156 148 140
205 208 238 263 255 262 259 269 280 272 257 235 212 203 205 199 205 232 233 238 237 274 288 300 321 319 320 318 294 281 227 225 231 241 239 226 206 189 178 173 165 157 152 146
209 214 228 249 251 258 253 259 262 251 200 194 202 196 193 209 230 246 247 254 248 270 276 302 325 330 331 327 289 244 222 235 231 232 231 222 212 189 179 173 175 165 163 158
211 218 225 234 248 238 175 166 177 189 199 204 207 212 213 225 253 252 253 252 244 260 268 304 325 349 349 341 296 242 245 232 235 230 238 225 206 181 170 169 190 196 187 170
143 175 187 198 187 169 173 172 181 201 205 208 210 219 234 237 250 242 257 255 260 263 258 286 327 29 19 35 29 13 269 242 246 225 213 210 180 163 171 178 181 190 193 186
102 97 109 142 147 137 194 184 192 198 206 215 221 233 252 301 271 256 247 255 264 268 242 236 179 74 71 67 59 62 57 187 203 196 192 168 160 170 167 156 147 149 151 168
109 126 135 142 151 184 175 181 201 204 212 217 245 255 257 247 258 261 248 244 255 247 224 223 202 145 109 107 110 108 107 113 121 123 127 143 153 154 161 177 172 162 187 208
87 105 98 109 109 102 126 122 142 158 117 155 225 260 245 240 234 235 244 252 247 228 213 213 203 189 174 157 147 139 127 126 123 122 120 121 141 169 186 212 218 201 192 190
Wind_Speed_850mb
14 16 12 10 19 15 8 9 12 11 20 20 22 19 40 43 41 43 45 45 38 32 28 32 39 45 52 63 57 53 59 39 34 36 53 63 57 55 51 51 53 56 56 51
1 8 13 11 17 15 14 9 5 11 14 5 16 19 20 47 45 48 51 42 35 29 24 23 25 30 34 46 55 58 61 55 56 59 55 44 52 57 58 53 50 48 51 50
5 3 7 6 14 12 9 8 13 12 20 13 11 19 39 45 49 52 48 49 45 34 23 15 18 21 25 31 41 47 50 56 56 63 54 49 49 60 63 63 59 56 54 57
4 7 5 13 7 0 11 11 13 8 17 35 48 57 57 56 60 58 55 55 51 37 28 20 17 19 19 21 23 28 32 35 40 48 53 54 55 54 53 57 63 58 60 62
10 6 10 6 7 11 11 14 18 16 12 22 30 31 21 53 60 60 59 52 46 36 32 24 19 14 13 13 12 15 14 18 22 26 30 34 43 44 43 57 63 62 58 52
2 11 11 13 5 9 9 8 7 15 19 27 41 9 11 59 59 61 51 51 49 39 29 23 21 17 14 16 19 16 14 16 20 27 31 32 32 36 34 30 32 46 54 52
2 2 12 14 17 26 14 14 10 36 49 51 21 25 53 53 58 55 50 56 45 36 28 20 16 14 17 20 23 18 16 18 21 26 27 35 35 35 33 37 42 45 46 45
9 8 15 16 7 13 17 4 13 46 52 58 45 36 56 56 56 56 58 50 42 34 27 22 20 22 27 30 24 27 25 24 23 28 28 31 36 35 36 37 38 42 43 47
12 11 16 29 10 17 14 16 16 51 59 65 56 71 69 70 67 63 58 49 39 31 24 19 23 27 32 29 33 34 31 27 25 27 34 32 31 32 32 33 33 39 46 50
7 2 23 35 9 8 21 20 15 40 68 67 62 73 75 72 67 61 52 47 39 25 17 17 18 20 22 33 35 36 34 30 31 33 40 38 32 29 29 29 32 35 37 40
9 9 23 8 42 47 16 6 27 26 63 64 60 78 82 73 65 57 51 39 25 16 14 16 19 21 22 20 24 29 30 34 40 45 43 38 29 30 30 30 32 39 39 42
8 4 6 25 48 37 30 17 30 49 55 59 63 82 77 68 61 56 47 34 22 12 9 9 10 12 16 19 24 29 35 40 38 30 30 28 27 28 34 37 42 44 42 44
6 13 28 45 37 18 42 17 7 40 61 69 80 80 74 68 62 52 39 27 15 9 4 9 10 14 18 24 30 34 37 35 34 35 33 32 35 36 43 37 41 41 43 43
22 35 35 21 28 44 36 17 5 34 65 75 82 77 70 67 59 47 36 25 17 8 3 10 13 16 22 25 27 31 33 35 37 37 32 33 36 39 34 38 44 45 40 33
58 57 58 54 50 38 33 16 14 27 55 70 74 74 75 69 59 50 39 28 18 8 7 15 21 23 28 32 35 36 38 38 30 27 31 32 32 34 39 42 37 25 20 16
57 51 48 49 52 37 21 12 24 46 65 70 68 74 78 67 59 50 38 29 14 8 9 18 24 22 18 22 25 23 26 26 23 25 24 28 29 34 35 24 12 8 6 9
41 32 35 45 56 41 23 11 23 32 49 62 70 80 76 64 56 48 38 28 17 12 11 18 23 20 21 22 24 22 24 24 25 26 26 27 29 27 15 13 14 17 19 23
49 49 42 50 59 36 26 9 14 36 35 59 72 73 66 67 65 48 36 26 20 15 14 20 22 25 27 32 35 35 34 30 30 28 27 31 29 19 18 23 30 38 38 36
48 48 38 31 33 19 20 20 15 23 34 43 58 67 72 68 52 38 31 27 20 16 16 21 28 34 37 39 38 34 33 32 36 31 31 30 30 30 33 38 39 39 36 32
48 33 30 30 35 38 23 19 20 21 30 29 39 64 74 61 49 34 28 28 21 18 18 20 31 38 39 39 39 37 37 31 34 38 38 41 36 42 43 38 37 37 37 38
49 38 39 38 30 26 34 30 31 30 30 42 45 65 64 55 43 41 37 36 26 20 21 24 33 34 38 39 31 20 20 28 36 39 39 43 48 51 46 43 42 43 43 41
45 42 32 34 34 37 37 40 29 20 16 27 52 48 45 54 46 40 34 23 22 20 21 23 27 28 29 26 12 15 18 26 27 36 52 44 56 59 51 50 42 41 37 33
39 36 35 30 29 27 26 33 24 21 24 35 41 53 60 49 37 40 31 25 28 25 21 18 20 18 22 22 8 11 12 15 19 35 31 32 61 55 55 43 36 39 34 29
21 18 20 19 27 27 33 35 35 34 43 57 55 38 33 33 35 35 30 25 25 22 19 13 6 16 19 24 23 12 10 18 13 18 33 40 66 72 47 34 34 33 36 30
39 34 29 35 36 23 20 31 32 31 35 32 25 23 20 10 15 15 25 29 28 30 26 15 6 18 20 24 24 14 8 3 11 23 38 66 69 53 52 50 44 49 44 27
37 32 25 19 20 28 25 27 31 36 32 20 17 22 27 29 33 30 31 33 34 29 31 27 17 15 22 22 21 25 31 34 34 36 37 46 46 51 29 28 46 43 31 21
39 33 35 33 27 23 18 13 10 12 11 9 11 14 23 36 35 30 28 34 38 37 42 38 29 24 26 24 24 22 27 33 37 38 33 26 22 27 35 30 28 31 27 25
Wind_Direction_850mb
223 212 157 153 168 169 120 162 157 240 200 215 202 196 192 186 178 184 192 196 213 220 222 227 236 240 239 239 240 236 240 244 230 245 262 251 247 245 247 244 245 246 248 250
291 205 182 162 172 168 147 145 203 180 247 263 197 192 177 182 177 171 170 175 179 179 181 194 207 220 229 234 244 240 237 246 250 247 265 251 248 248 246 241 244 247 242 244
224 125 81 23 211 183 164 180 146 157 214 150 180 179 195 187 182 169 175 179 178 174 178 192 218 223 227 237 243 245 250 249 258 251 253 247 262 259 256 247 243 242 246 247
170 60 177 237 285 182 175 174 206 169 158 187 195 201 195 193 186 176 174 177 177 173 176 185 188 191 202 218 223 229 236 242 248 250 251 254 267 257 249 245 242 243 245 252
128 184 275 270 186 182 165 241 193 198 156 178 154 156 198 202 198 188 184 186 183 178 174 176 181 200 219 227 216 218 225 240 242 245 253 259 266 260 262 250 251 259 255 259
140 154 205 239 199 137 88 306 192 150 142 137 135 139 237 206 207 199 191 185 181 180 183 197 201 213 237 253 270 256 269 287 277 267 268 269 267 260 266 259 245 252 261 257
145 127 289 252 283 129 113 235 214 184 166 157 169 195 199 196 198 198 195 181 182 182 186 192 209 252 262 261 265 269 278 275 290 277 284 279 272 268 266 262 260 266 243 244
113 138 246 208 235 164 194 256 234 194 187 173 184 168 165 172 180 179 176 174 177 180 188 204 224 247 241 240 249 246 260 270 288 279 287 281 269 267 265 265 267 261 257 257
175 209 303 310 277 158 176 149 188 199 189 182 164 162 167 162 165 167 168 170 175 185 192 217 241 239 244 249 241 238 248 264 278 291 305 288 270 262 261 260 256 251 248 251
352 243 329 318 17 9 319 175 211 208 198 181 169 168 165 165 166 166 170 172 177 190 226 248 245 245 254 253 254 244 251 268 281 290 299 295 278 266 264 257 258 258 261 264
289 320 341 22 2 3 332 238 156 171 189 179 175 170 169 169 170 174 175 180 189 212 247 268 271 268 270 263 254 255 268 280 289 287 283 282 270 278 274 278 276 274 272 270
238 209 239 294 327 344 358 9 184 171 180 187 193 176 175 178 183 183 182 185 190 227 265 300 292 269 256 248 257 270 282 294 298 285 279 268 264 262 271 279 283 277 272 270
262 296 309 320 322 329 335 319 203 204 194 188 183 181 184 184 183 181 182 184 199 224 290 324 296 267 267 273 275 277 285 288 286 279 283 265 268 272 277 282 285 280 276 271
276 305 298 300 322 325 327 307 226 205 200 192 189 190 190 185 180 185 186 195 205 207 305 330 311 281 279 279 283 280 281 285 284 277 282 274 270 275 277 279 283 286 279 273
268 271 272 281 287 308 310 290 241 214 206 204 201 194 192 187 189 189 194 200 199 205 295 324 315 287 282 281 279 279 279 283 283 278 270 266 270 271 276 282 286 283 281 266
247 258 263 263 269 289 295 264 210 198 201 208 204 198 196 197 193 192 197 196 198 240 295 324 326 311 297 299 289 280 276 279 283 279 270 266 267 273 275 273 252 245 195 171
229 215 231 242 245 259 251 242 186 181 190 201 208 198 195 192 192 191 191 193 209 244 287 321 331 316 299 301 301 288 281 286 282 278 265 265 272 277 243 211 192 165 144 127
237 239 246 251 249 250 236 245 204 196 203 206 203 196 192 199 200 192 196 200 218 253 287 311 318 316 301 298 297 283 268 258 264 268 264 256 270 239 195 176 158 143 134 126
238 232 245 221 223 221 220 219 232 206 190 202 202 198 200 210 204 194 196 211 228 267 284 304 315 316 311 305 298 288 276 248 249 246 251 254 248 202 176 159 151 145 140 137
223 213 226 246 263 252 240 218 258 254 240 218 199 203 203 203 202 205 224 234 243 263 290 304 322 317 310 306 298 288 262 245 237 241 246 239 215 192 176 169 163 156 148 140
205 208 238 263 255 262 259 269 280 272 257 235 212 203 205 199 205 232 233 238 237 274 288 300 321 319 320 318 294 281 227 225 231 241 239 226 206 189 178 173 165 157 152 146
209 214 228 249 251 258 253 259 262 251 200 194 202 196 193 209 230 246 247 254 248 270 276 302 325 330 331 327 289 244 222 235 231 232 231 222 212 189 179 173 175 165 163 158
211 218 225 234 248 238 175 166 177 189 199 204 207 212 213 225 253 252 253 252 244 260 268 304 325 349 349 341 296 242 245 232 235 230 238 225 206 181 170 169 190 196 187 170
143 175 187 198 187 169 173 172 181 201 205 208 210 219 234 237 250 242 257 255 260 263 258 286 327 29 19 35 29 13 269 242 246 225 213 210 180 163 171 178 181 190 193 186
102 97 109 142 147 137 194 184 192 198 206 215 221 233 252 301 271 256 247 255 264 268 242 236 179 74 71 67 59 62 57 187 203 196 192 168 160 170 167 156 147 149 151 168
109 126 135 142 151 184 175 181 201 204 212 217 245 255 257 247 258 261 248 244 255 247 224 223 202 145 109 107 110 108 107 113 121 123 127 143 153 154 161 177 172 162 187 208
87 105 98 109 109 102 126 122 142 158 117 155 225 260 245 240 234 235 244 252 247 228 213 213 203 189 174 157 147 139 127 126 123 122 120 121 141 169 186 212 218 201 192 190